Location: Unspecified
(0.0000°N, 0.0000°E)
Time: 08:24:48
(UTC+00:00)

Vanguard 2 Rocket - Pass Details

Date: 24 October 2025
Orbit: 553 x 3286 km, 32.9° (Epoch: 13 March)

Event Time Altitude Azimuth Distance (km) Brightness Sun altitude
Rises 08:51:48 0° 298° (WNW) 7,034 11.0 45.6°
Reaches altitude 10° 08:57:03 10° 295° (WNW) 5,765 10.7 46.9°
Maximum altitude 09:13:03 58° 220° (SW) 2,299 9.5 50.7°
Drops below altitude 10° 09:22:21 10° 141° (SE) 3,489 10.6 52.8°
Sets 09:24:45 0° 137° (SE) 4,181 10.8 53.4°
